Tracking 18980 objects as of 22-Feb-2018
HD Live streaming from Space Station
objects crossing your sky now

IRIDIUM 920

Track IRIDIUM 920 now!
10-day predictions
IRIDIUM 920 is classified as:


NORAD ID: 24871
Int'l Code: 1997-034C
Perigee: 760.2 km
Apogee: 774.3 km
Inclination: 86.4 °
Period: 100.0 minutes
Semi major axis: 7138 km
RCS: 6.698 m2 (large)
Launch date: July 9, 1997
Source: United States (US)
Launch site: AIR FORCE WESTERN TEST RANGE (AFWTR)
aabbcc
Your satellite tracking list
Your tracking list is empty




NASA's NSSDC Master Catalog

Two Line Element Set (TLE):
1 24871U 97034C   18051.95123811 +.00000077 +00000-0 +18348-4 0  9992
2 24871 086.3942 261.5001 0009932 236.6895 123.3354 14.39513386081871
Source of the keplerian elements: AFSPC